Location: Arrington
(35.8681°N, 86.7092°W)
Time: 17:00:35
(UTC+00:00)

STARLINK 1015 - Pass Details

Date: 23 November 2019
Orbit: 348 x 351 km, 53.0° (Epoch: 05 December)

Event Time Altitude Azimuth Distance (km) Brightness Sun altitude
Exits shadow 11:25:31 18° 239° (WSW) 955 4.5 -13.2°
Maximum altitude 11:27:32 62° 317° (NW) 397 2.6 -12.8°
Drops below altitude 10° 11:30:26 10° 40° (NE) 1,312 5.9 -12.3°
Sets 11:32:28 0° 44° (NE) 2,158 7.0 -11.9°
